Hlavní strana
METAR-TAF:

METAR-TAF

Letiště :

Stanly County Airport

Albemarle, Severní Karolína, Spojené státy americké

zeměpisná šířka: 35-25-00N, zeměpisná délka: 080-09-03W, výška: 186 m

Aktuální stav počasí

Zpráva byla vytvořena před 22 minutami, v 01:55 UTC
Bezvětří
Teplota 21°C
Vlhkost vzduchu 100%
Tlak 1019 hPa
Viditelnost: 16.1 km
Oblačno až skoro zataženo ve výšce 1100 ft
bouřka v blíkosti

METAR: KVUJ 300155Z AUTO 00000KT 10SM VCTS BKN011 21/21 A3009 RMK AO2 T02050205

Čas: 22:17 (02:17 UTC)


TAF: chybějící

Stav a předpovědi počasí z více než 4 000 letišť (zprávy METAR a TAF).

Červené a žluté tečky na mapě představují dostupné meteorologické stanice.

Když kurzor umístíte na tečku, zobrazí se název stanice.

Pak kliknutím zobrazíte stav a předpověď počasí.

Chcete-li změnit mapu, kliknutím na zelené tlačítko se znaménkem +mapu přiblížíte, kliknutím na zelené tlačítko se znaménkem – mapu oddálíte a kliknutím na zelené šipky přejdete na sousední mapy.


METAR-TAF: